Tracking 19854 objects as of 23-Sep-2019
HD Live streaming from Space Station
objects crossing your sky now

FENGYUN 1C DEB

Track FENGYUN 1C DEB now!
10-day predictions


NORAD ID: 32143
Int'l Code: 1999-025CSM
Perigee: 769.1 km
Apogee: 922.7 km
Inclination: 98.6 °
Period: 101.7 minutes
Semi major axis: 7216 km
RCS: 0.012 m2 (small)
Launch date: May 10, 1999
Source: People's Republic of China (PRC)
Launch site: Taiyaun Space Center, China (TSC)

Note: This is SATELLITE DEBRIS
aabbcc
Your satellite tracking list
Your tracking list is empty




NASA's NSSDC Master Catalog

Two Line Element Set (TLE):
1 32143U 99025CSM 19261.89441109 +.00000014 +00000-0 +26993-4 0  9991
2 32143 098.5983 296.5746 0106401 184.2615 175.7665 14.16047056636977
Source of the keplerian elements: AFSPC